Retour au catalogue

STARLINK-35681

ActifCommunicationsVLEO
NORAD 66395·PAYLOAD·🇺🇸 United States

Lancé Nov 8, 2025 depuis Cape Canaveral Space Force Station

Loading…

Prochains Passages (prochaines 24 heures)

TLE

FraisSource: CelesTrak SupGP

Époque: Sep 14, 2026, 20:58 UTC

1 66395C 25257R   26257.87409722  .00037885  00000+0  11196-2 0  2578
2 66395  53.1585  55.7493 0001074  82.4055 297.5790 15.34365206    12

Suivez STARLINK-35681 en temps réel avec AllMySat

Download on the App Store